IRIDIUM 140

Last updated on Tue Sep 22 2026 00:03:21 GMT+0000 (Coordinated Universal Time)

1 43252U 18030D 26264.48577789 .00000076 00000+0 20250-4 0 9998 2 43252 86.3917 250.1490 0002272 87.1235 273.0221 14.34217923443994
UTC large
Height (km)
Speed (km/s)
/
Latitude / Longitude
Inclination (degrees)
Orbital Period (minutes)
Azimuth
Elevation
Range (km)
Doppler Factor

Next 0 passes for location: London (51.5072 / 0.1276)

No passes found over London.
IRIDIUM 140